NOAA 16 DEB, 42419

Orbit data source: Space-Track

NOAA 16 DEB, 42419 is space debris in SSO originally from a launch on Thu, 21 Sep 2000 UTC launched from the Air Force Western Test Range (AFWTR). Debris objects in space refer to the collection of defunct objects orbiting the Earth. Examples of debris include non-operational satellites, rocket bodies, and fragments generated from explosions, collisions, or faulty payload assembly.

Loading next visibility...
Identifier
42419, 2000-055TP
Orbit
SSO
Country
Flag of USUS
Related business
Manufacturer
Unknown
Mission
Spacecraft
Bus & Motor
Unknown
Mass
Unknown
Launch date (UTC)
2000-09-21 (26 years ago)
Launch vehicle
Unknown
Launch site
Air Force Western Test Range (AFWTR)
Object type
Payload
Rocket body
Debris
Shape & HBR
Unknown shape, 0.1 m
Radar Cross Section
Medium (>0.1 m² and <1 m²)

Expand to show TLE details & history
Last TLE update: 3 days ago

TLE from 3 days ago
0 NOAA 16 DEB
1 42419U 00055TP  26170.81368511  .00016168  00000-0  30177-2 0  9991
2 42419  98.8228 303.6670 0011092 300.3747  59.6357 14.65008563533263
Epoch: 2026-06-19T19:31Z
TLE epoch observation values (Epoch: 2026-06-19T19:31:42.393Z)
Latitude
-0°
Longitude
102.70309°
Altitude
676.07 km
Speed
7.521 km/s
True Right ascension
20h 14m 40s
True Declination
0° 00' 00"
Sunlit
Object was in full shadow at epoch
Visualization orbit readout
Latitude
Unknown
Longitude
Unknown
Altitude
Unknown
Speed
Unknown
Apparent Right ascension
Unknown
Apparent Declination
Unknown
Sunlit
N/A
Visualization observer readout
Local Sidereal Time
21:38:50
Azimuth
Unknown
Elevation
Unknown
Doppler factor
Unknown
Orbital elements
Apogee altitude
681.975 km
Perigee altitude
666.33 km
Semi-major axis
7,052.289 km
Eccentricity
0.00111
Inclination
98.8228°
RAAN
303.667°
Arg. of periapsis
300.3747°
True anomaly
59.74545°
Mean anomaly
59.6357°
Eccentric anomaly
59.69057°
Mean motion
3.66478 °/min
Orbital period
98.23 mins
BSTAR
0.0030177
Loading maneuver chart data...
Computing Atmospheric mass density...
Loading historical data...
Loading historical data...
Loading historical data...
Loading historical data...
Loading historical data...
Loading historical data...
Loading historical data...

Documentation

Showing up to 5 results
|